Find Starlink 30368

NORAD ID: 57752 Int'l Des: 2023-131 Owner: SPXS Country: US Constellation: starlink operational
LEOCIRCULAR

当前视图

正在加载3D地球...

About Starlink 30368

Starlink 30368 (NORAD 57752) is a starlink constellation satellite (v2 mini) launched Sep 1, 2023 by SPXS of US. It operates in LEO, CIRCULAR orbit with a mass of 730.00 kg.

关于 Starlink 30368

正在加载描述...

即将过境

Passes for default location (London). Set your location on the main map for personalized predictions.

高度历史

Loading altitude history...

两行轨道根数

1 57752U 23131W 26167.16266764 -.00001541 00000-0 -46485-4 0 9990
2 57752 43.0081 336.5537 0000900 277.3621 82.7129 15.27575962154977
Epoch: Jun 16, 2026 • Age: 18 hours

当前状态

高度 486.1 km
速度 7.63 km/s
星下点 39.86°N, 140.38°W
发射日期 Sep 1, 2023
运行时间 2.7 years
类型 internet

技术详情

分类 Payload
质量 730.00 kg
干质量 700.00 kg
总质量 730.00 kg
长度 0.30 m
直径 4.10 m
跨度 29.00 m
形状 Box + pan
制造商 SPXS
平台类型 Starlink V2M
阶段状态 In Orbit
所有者/国家 SPXS/US

Most Searched